Regional Weather Roundup
Issued by NWS

Home | Current Version | Previous Version | Graphics & Text | Print | Product List | Glossary On
Versions: 1 2 3 4 5 6 7 8 9 10 11 12 13 14 15 16 17 18 19 20 21 22 23 24 25 26 27 28 29 30 31 32 33 34 35 36 37 38 39 40 41 42 43 44 45 46 47 48 49 50
000
ASUS43 KLOT 241503
RWRIL

ILLINOIS REGIONAL WEATHER ROUNDUP
NATIONAL WEATHER SERVICE CHICAGO/ROMEOVILLE IL
1000 AM CDT SAT SEP 24 2016

NOTE: "FAIR" INDICATES FEW OR NO CLOUDS BELOW 12,000 FEET WITH NO
SIGNIFICANT WEATHER AND/OR OBSTRUCTIONS TO VISIBILITY.

* THESE STATIONS ARE NOT UNDER NWS QUALITY CONTROL. THEY ALSO MAY NOT
  REPORT WEATHER SUCH AS PRECIPITATION OR FOG.

ILZ001-002-007-009-015-016-024-241600-
NORTHWEST ILLINOIS

CITY           SKY/WX    TMP DP  RH WIND       PRES   REMARKS
MOLINE         CLOUDY    69  66  90 SE8       30.14S FOG
STERLING*      CLOUDY    69  66  90 E8        30.17S FOG
$$

ILZ003-004-008-010-011-017-018-241600-
NORTH CENTRAL ILLINOIS

CITY           SKY/WX    TMP DP  RH WIND       PRES   REMARKS
ROCKFORD       CLOUDY    68  62  81 E8        30.20S
ROCHELLE*      CLOUDY    67  64  90 E7        30.20R
$$

ILZ005-006-012>014-019>023-241600-
NORTHEAST ILLINOIS

CITY           SKY/WX    TMP DP  RH WIND       PRES   REMARKS
CHICAGO-OHARE  CLOUDY    67  61  81 E9        30.20R
CHICAGO-MIDWAY CLOUDY    68  61  78 E12       30.19S
AURORA         CLOUDY    70  64  81 E8        30.19R
LANSING*       CLOUDY    68  65  89 CALM      30.20R
JOLIET*        CLOUDY    70  66  87 E8        30.19S FOG
WAUKEGAN       CLOUDY    65  60  84 E9        30.21S
DUPAGE AIRPORT CLOUDY    68  62  81 E9        30.19S
KANKAKEE*      CLOUDY    69  66  89 E5        30.19R FOG
WHEELING       CLOUDY    66  61  84 E6        30.22R
MORRIS*        CLOUDY    69  65  88 E6        30.18R FOG
ROMEOVILLE*    CLOUDY    68  66  93 E9        30.19R FOG
NORTHERLY ISL    N/A     66  61  84 E8          N/A
$$

LMZ740>746-241600-
SOUTHERN LAKE MICHIGAN

STATION/POSITION SKY/WX   TEMP    WIND        PRES    VSBY  WAVE
                          AIR SEA DIR/SP/G                  HT/PER
                          (F)     (DEG/KT/KT) (MB)    (MI)  (FT/S)
SOUTHERN BUOY              63 72  100/ 16/ 19 1022.7          3/ 5
WILMETTE HARBOR            65 64  110/  8/ 10   N/A           3/ 5
HARRISON CRIB              67     100/ 13/ 14   N/A
BURNHAM HARBOR             66      80/  8/ 11   N/A
CALUMET HARBOR             65      80/  7/  9 1022.1R
BURNS HARBOR               64      60/  6/ 10 1023.0R
MICHIGAN CITY              63      70/  5/  6   N/A
MICHIGAN CITY 6N           63 70   90/  8/ 10   N/A           2/ 6
ST. JOSEPH                 63 70   90/ 10/ 14 1023.1S         2/ 6
$$

ILZ025>027-034>036-040-047-049-050-058-095>099-241600-
WEST-CENTRAL ILLINOIS

CITY           SKY/WX    TMP DP  RH WIND       PRES   REMARKS
QUINCY         SUNNY     78  68  71 SE6       30.11S HX  80
GALESBURG*     CLOUDY    69  67  92 E5        30.15R FOG
MACOMB*        CLOUDY    69  69 100 E7        30.16S FOG
JACKSONVILLE*  SUNNY     79  67  67 CALM      30.12F HX  81
PITTSFIELD*    SUNNY     79  69  71 CALM      30.13S HX  82
$$

ILZ028>032-037-038-041>044-048-051>054-059>061-241600-
CENTRAL ILLINOIS

CITY           SKY/WX    TMP DP  RH WIND       PRES   REMARKS
PONTIAC        CLOUDY    72  70  92 E8        30.18S FOG
BLOOMINGTON    CLOUDY    70  67  90 VRB6      30.17S FOG
DECATUR        SUNNY     77  68  73 E5        30.14F
PEORIA         CLOUDY    72  69  90 SE8       30.15S FOG
LACON*         CLOUDY    71  66  85 SE7       30.15S HAZE
SPRINGFIELD    SUNNY     77  69  76 NE5       30.13S HAZE
TAYLORVILLE    SUNNY     79  68  68 S3        30.14R HX  82
$$

ILZ033-039-045-046-055>057-062-063-241600-
EAST-CENTRAL ILLINOIS

CITY           SKY/WX    TMP DP  RH WIND       PRES   REMARKS
CHAMPAIGN      SUNNY     74  67  78 E8        30.16S HAZE
RANTOUL*       MOSUNNY   75  69  81 E5        30.16S HAZE
MATTOON        SUNNY     78  67  68 CALM      30.14S HX  80
PARIS*         SUNNY     77  69  76 CALM      30.15F
$$

ILZ079-100>102-241600-
SOUTHWEST ILLINOIS

CITY           SKY/WX    TMP DP  RH WIND       PRES   REMARKS
ALTON          SUNNY     79  70  73 CALM      30.13R HX  81
BELLEVILLE     SUNNY     79  72  78 VRB2      30.11S HX  83
CAHOKIA*       SUNNY     81  70  69 SE6       30.11S HX  84
SPARTA*        SUNNY     78  70  75 SE3       30.13S HX  81
$$

ILZ064>066-069>071-074>076-080>082-084>086-088>090-092>094-241600-
SOUTH-CENTRAL ILLINOIS

CITY           SKY/WX    TMP DP  RH WIND       PRES   REMARKS
CARBONDALE     SUNNY     79  72  79 CALM      30.12S HX  82
EFFINGHAM*     SUNNY     80  70  69 CALM      30.16S HX  84
MARION         SUNNY     82  70  65 SE5       30.13F HX  86
MT. VERNON     SUNNY     79  66  65 E3        30.15S HX  81
CENTRALIA*     SUNNY     80  72  75 NE3       30.13S HX  84
SALEM*         SUNNY     80  68  65 E3        30.14S HX  83
METROPOLIS*    SUNNY     81  69  66 CALM      30.13S HX  85
$$

ILZ067-068-072-073-078-083-087-091-241600-
SOUTHEAST ILLINOIS

CITY           SKY/WX    TMP DP  RH WIND       PRES   REMARKS
LAWRENCEVILLE  SUNNY     77  68  73 NW3       30.14S
FLORA*         SUNNY     82  68  64 CALM      30.14S HX  84
FAIRFIELD*     SUNNY     80  68  66 CALM      30.13F HX  83
HARRISBURG*    SUNNY     80  70  70 CALM      30.13F HX  83
ROBINSON*      SUNNY     76  71  84 CALM      30.15S
CARMI*         SUNNY     80  69  70 CALM      30.13S HX  83
$$

ABBREVIATIONS USED IN REMARKS
   TC - TEMPERATURE IN CELSIUS
  WCI - WIND CHILL INDEX
   HX - HEAT INDEX
  VSB - VISIBILITY
$$




USA.gov is the U.S. government's official web portal to all federal, state and local government web resources and services.